EZY43XQ EGKK-LGKF

Flight info

Callsign EZY43XQ
Flight time 2h 51m
Altitude 37000
Route SFD Y47 BENBO L612 HAWKE UL612 VEULE DCT KOTAP DCT KETEX DCT KOTIS DCT KUKOR DCT UTUVA DCT TITVA DCT NOQAS DCT OTROT DCT RETNO DCT KOLON DCT RAPUR DCT RATAP DCT BTA DCT DOKAR DCT SUNEV DCT PNZ DCT EVINO DCT DIPOK DCT ADREN DCT TOMGI DCT RUTOM UM601 LASKO
Aircraft A320/M-SDE3FGHIRWY/LB1

Departure

Time 2026-04-23 06:31
Airport London Gatwick Airport (EGKK)

Arrival

Time 2026-04-23 09:22
Airport Kefallinia Airport (LGKF)
Time Latitude Longitude Altitude Speed Heading
2026-04-23 06:09 51.15969 -0.17126 215 ft 0 kts 315°
2026-04-23 06:18 51.15968 -0.17125 204 ft 2 kts 315°
2026-04-23 06:19 51.15950 -0.17096 215 ft 4 kts 315°
2026-04-23 06:19 51.15935 -0.17072 213 ft 4 kts 313°
2026-04-23 06:19 51.15923 -0.17040 211 ft 4 kts 258°
2026-04-23 06:19 51.15935 -0.17009 211 ft 4 kts 229°
2026-04-23 06:20 51.15940 -0.16999 214 ft 0 kts 229°
2026-04-23 06:21 51.15914 -0.17036 214 ft 9 kts 217°
2026-04-23 06:22 51.15871 -0.17070 204 ft 11 kts 198°
2026-04-23 06:22 51.15803 -0.17200 215 ft 14 kts 258°
2026-04-23 06:22 51.15788 -0.17309 208 ft 16 kts 259°
2026-04-23 06:22 51.15766 -0.17466 208 ft 12 kts 250°
2026-04-23 06:23 51.15696 -0.17490 213 ft 11 kts 167°
2026-04-23 06:23 51.15618 -0.17463 204 ft 13 kts 168°
2026-04-23 06:23 51.15514 -0.17427 211 ft 17 kts 167°
2026-04-23 06:23 51.15388 -0.17381 213 ft 19 kts 167°
2026-04-23 06:24 51.15299 -0.17427 213 ft 14 kts 259°
2026-04-23 06:24 51.15282 -0.17583 206 ft 15 kts 256°
2026-04-23 06:24 51.15257 -0.17760 208 ft 16 kts 257°
2026-04-23 06:24 51.15234 -0.17924 204 ft 15 kts 258°
2026-04-23 06:25 51.15211 -0.18106 209 ft 17 kts 256°
2026-04-23 06:25 51.15188 -0.18281 213 ft 16 kts 261°
2026-04-23 06:25 51.15170 -0.18443 211 ft 14 kts 258°
2026-04-23 06:25 51.15150 -0.18588 203 ft 13 kts 258°
2026-04-23 06:26 51.15127 -0.18751 213 ft 18 kts 257°
2026-04-23 06:26 51.15096 -0.18970 214 ft 22 kts 257°
2026-04-23 06:26 51.15064 -0.19206 204 ft 23 kts 258°
2026-04-23 06:26 51.15030 -0.19457 204 ft 23 kts 258°
2026-04-23 06:27 51.14995 -0.19714 208 ft 24 kts 257°
2026-04-23 06:27 51.14957 -0.19982 203 ft 26 kts 257°
2026-04-23 06:27 51.14918 -0.20261 203 ft 27 kts 257°
2026-04-23 06:27 51.14878 -0.20557 207 ft 28 kts 258°
2026-04-23 06:28 51.14835 -0.20867 208 ft 29 kts 257°
2026-04-23 06:28 51.14802 -0.21103 208 ft 16 kts 256°
2026-04-23 06:28 51.14772 -0.21263 204 ft 14 kts 257°
2026-04-23 06:28 51.14741 -0.21392 213 ft 11 kts 216°
2026-04-23 06:29 51.14675 -0.21373 209 ft 9 kts 144°
2026-04-23 06:29 51.14623 -0.21330 207 ft 8 kts 163°
2026-04-23 06:29 51.14571 -0.21305 207 ft 11 kts 158°
2026-04-23 06:29 51.14517 -0.21192 205 ft 11 kts 89°
2026-04-23 06:30 51.14533 -0.21074 206 ft 16 kts 77°
2026-04-23 06:30 51.14602 -0.20577 209 ft 81 kts 77°
2026-04-23 06:30 51.14766 -0.19380 205 ft 138 kts 78°
2026-04-23 06:30 51.14998 -0.17673 410 ft 165 kts 78°
2026-04-23 06:31 51.15240 -0.15917 1232 ft 161 kts 77°
2026-04-23 06:31 51.15488 -0.14109 1696 ft 177 kts 79°
2026-04-23 06:31 51.15766 -0.12079 1976 ft 197 kts 80°
2026-04-23 06:31 51.16068 -0.09864 2574 ft 208 kts 81°
2026-04-23 06:32 51.16245 -0.07564 3255 ft 214 kts 101°
2026-04-23 06:32 51.15515 -0.05506 3938 ft 223 kts 140°
2026-04-23 06:32 51.14084 -0.04447 4733 ft 232 kts 161°
2026-04-23 06:32 51.12496 -0.03922 5562 ft 235 kts 166°
2026-04-23 06:33 51.10840 -0.03330 6053 ft 253 kts 162°
2026-04-23 06:33 51.09119 -0.02582 6777 ft 259 kts 161°
2026-04-23 06:33 51.07317 -0.02128 7514 ft 267 kts 175°
2026-04-23 06:33 51.05443 -0.02023 8276 ft 271 kts 175°
2026-04-23 06:34 51.03544 -0.01920 9046 ft 275 kts 175°
2026-04-23 06:34 51.01612 -0.01817 9816 ft 280 kts 175°
2026-04-23 06:34 50.99650 -0.01716 10564 ft 284 kts 175°
2026-04-23 06:34 50.97630 -0.01615 10848 ft 306 kts 176°
2026-04-23 06:35 50.95427 -0.01501 11110 ft 325 kts 176°
2026-04-23 06:35 50.93138 -0.01386 11696 ft 332 kts 176°
2026-04-23 06:35 50.90780 -0.01268 12390 ft 336 kts 176°
2026-04-23 06:35 50.88426 -0.01152 13073 ft 340 kts 175°
2026-04-23 06:36 50.86043 -0.01033 13745 ft 345 kts 175°
2026-04-23 06:36 50.83632 -0.00909 14358 ft 349 kts 175°
2026-04-23 06:36 50.81187 -0.00778 14929 ft 354 kts 175°
2026-04-23 06:36 50.78714 -0.00649 15499 ft 357 kts 175°
2026-04-23 06:37 50.76212 -0.00523 16056 ft 361 kts 175°
2026-04-23 06:37 50.73720 -0.00401 16618 ft 365 kts 175°
2026-04-23 06:37 50.71165 -0.00276 17180 ft 369 kts 175°
2026-04-23 06:37 50.68580 -0.00145 17725 ft 374 kts 175°
2026-04-23 06:38 50.65970 -0.00012 18280 ft 378 kts 175°
2026-04-23 06:38 50.63329 0.00124 18804 ft 382 kts 175°
2026-04-23 06:38 50.60657 0.00259 19250 ft 386 kts 175°
2026-04-23 06:38 50.57957 0.00395 19686 ft 391 kts 176°
2026-04-23 06:39 50.55226 0.00528 20136 ft 395 kts 176°
2026-04-23 06:39 50.52467 0.00659 20587 ft 399 kts 176°
2026-04-23 06:39 50.49682 0.00791 21036 ft 402 kts 176°
2026-04-23 06:39 50.46897 0.01306 21471 ft 404 kts 166°
2026-04-23 06:40 50.44209 0.02578 21885 ft 405 kts 155°
2026-04-23 06:40 50.41690 0.04570 22294 ft 406 kts 145°
2026-04-23 06:40 50.39323 0.07023 22659 ft 411 kts 143°
2026-04-23 06:40 50.36930 0.09514 23051 ft 415 kts 144°
2026-04-23 06:41 50.34509 0.12019 23445 ft 419 kts 144°
2026-04-23 06:41 50.32061 0.14539 23828 ft 423 kts 144°
2026-04-23 06:41 50.29622 0.17047 24167 ft 427 kts 144°
2026-04-23 06:41 50.27102 0.19641 24513 ft 430 kts 144°
2026-04-23 06:42 50.24629 0.22182 24849 ft 433 kts 144°
2026-04-23 06:42 50.22105 0.24772 25189 ft 435 kts 144°
2026-04-23 06:42 50.19565 0.27376 25517 ft 438 kts 144°
2026-04-23 06:42 50.17011 0.29998 25830 ft 441 kts 144°
2026-04-23 06:43 50.14438 0.32643 26132 ft 444 kts 144°
2026-04-23 06:43 50.11848 0.35304 26466 ft 447 kts 144°
2026-04-23 06:43 50.09248 0.37976 26796 ft 449 kts 144°
2026-04-23 06:43 50.06631 0.40664 27122 ft 452 kts 144°
2026-04-23 06:44 50.04001 0.43354 27435 ft 454 kts 144°
2026-04-23 06:44 50.01352 0.46056 27782 ft 457 kts 144°
2026-04-23 06:44 49.98682 0.48772 28039 ft 460 kts 144°
2026-04-23 06:44 49.95995 0.51508 28304 ft 464 kts 144°
2026-04-23 06:45 49.93290 0.54266 28594 ft 467 kts 144°
2026-04-23 06:45 49.90566 0.57039 28884 ft 469 kts 144°
2026-04-23 06:45 49.87827 0.59819 29166 ft 472 kts 145°
2026-04-23 06:45 49.85073 0.62609 29458 ft 474 kts 144°
2026-04-23 06:46 49.82337 0.65485 29748 ft 476 kts 143°
2026-04-23 06:46 49.79631 0.68462 30031 ft 478 kts 142°
2026-04-23 06:46 49.76939 0.71509 30302 ft 481 kts 141°
2026-04-23 06:46 49.74241 0.74583 30546 ft 483 kts 141°
2026-04-23 06:47 49.71525 0.77658 30770 ft 485 kts 142°
2026-04-23 06:47 49.68788 0.80716 30992 ft 487 kts 142°
2026-04-23 06:47 49.66032 0.83764 31215 ft 489 kts 143°
2026-04-23 06:47 49.63260 0.86802 31505 ft 488 kts 143°
2026-04-23 06:48 49.60488 0.89825 31848 ft 488 kts 143°
2026-04-23 06:48 49.57711 0.92846 32101 ft 489 kts 143°
2026-04-23 06:48 49.54929 0.95879 32360 ft 490 kts 143°
2026-04-23 06:48 49.52147 0.98913 32658 ft 490 kts 143°
2026-04-23 06:49 49.49369 1.01948 32950 ft 490 kts 143°
2026-04-23 06:49 49.46591 1.04978 33245 ft 490 kts 144°
2026-04-23 06:49 49.43814 1.08004 33545 ft 489 kts 144°
2026-04-23 06:49 49.41038 1.11028 33847 ft 489 kts 144°
2026-04-23 06:50 49.38263 1.14042 34148 ft 489 kts 144°
2026-04-23 06:50 49.35482 1.17053 34433 ft 489 kts 144°
2026-04-23 06:50 49.32706 1.20052 34698 ft 488 kts 144°
2026-04-23 06:50 49.29934 1.23039 34980 ft 487 kts 144°
2026-04-23 06:51 49.27171 1.26015 35254 ft 485 kts 144°
2026-04-23 06:51 49.24418 1.28982 35531 ft 483 kts 144°
2026-04-23 06:51 49.21670 1.31941 35804 ft 482 kts 144°
2026-04-23 06:51 49.18933 1.34882 36100 ft 480 kts 144°
2026-04-23 06:52 49.16207 1.37808 36377 ft 478 kts 143°
2026-04-23 06:52 49.13527 1.40681 36644 ft 476 kts 143°
2026-04-23 06:52 49.10781 1.43618 36908 ft 474 kts 143°
2026-04-23 06:52 49.08083 1.46501 37154 ft 473 kts 143°
2026-04-23 06:53 49.05424 1.49337 37307 ft 473 kts 144°
2026-04-23 06:53 49.02696 1.52242 37346 ft 472 kts 144°
2026-04-23 06:53 48.97318 1.57958 37340 ft 471 kts 144°
2026-04-23 06:54 48.91983 1.63617 37342 ft 471 kts 144°
2026-04-23 06:54 48.86610 1.69297 37337 ft 470 kts 144°
2026-04-23 06:55 48.81236 1.74968 37363 ft 470 kts 144°
2026-04-23 06:55 48.75861 1.80630 37350 ft 470 kts 144°
2026-04-23 06:56 48.70488 1.86273 37342 ft 470 kts 144°
2026-04-23 06:56 48.65116 1.91890 37366 ft 469 kts 144°
2026-04-23 06:57 48.59738 1.97499 37352 ft 470 kts 144°
2026-04-23 06:57 48.54362 2.03102 37341 ft 470 kts 144°
2026-04-23 06:58 48.48975 2.08699 37319 ft 470 kts 144°
2026-04-23 06:58 48.43581 2.14280 37310 ft 471 kts 144°
2026-04-23 06:59 48.38181 2.19857 37312 ft 471 kts 144°
2026-04-23 06:59 48.32780 2.25419 37308 ft 471 kts 144°
2026-04-23 07:00 48.27092 2.30273 37302 ft 472 kts 159°
2026-04-23 07:00 48.20786 2.32994 37303 ft 472 kts 166°
2026-04-23 07:01 48.14437 2.35515 37307 ft 472 kts 166°
2026-04-23 07:01 48.08134 2.38308 37293 ft 473 kts 162°
2026-04-23 07:02 48.01907 2.41523 37303 ft 473 kts 160°
2026-04-23 07:02 47.95687 2.44768 37298 ft 474 kts 161°
2026-04-23 07:03 47.89435 2.47892 37290 ft 474 kts 162°
2026-04-23 07:03 47.83166 2.50946 37298 ft 474 kts 162°
2026-04-23 07:04 47.76939 2.53986 37295 ft 474 kts 162°
2026-04-23 07:04 47.70673 2.57067 37285 ft 474 kts 162°
2026-04-23 07:05 47.64407 2.60147 37281 ft 475 kts 162°
2026-04-23 07:05 47.58135 2.63216 37282 ft 475 kts 162°
2026-04-23 07:06 47.51862 2.66272 37264 ft 475 kts 162°
2026-04-23 07:06 47.45581 2.69315 37280 ft 475 kts 162°
2026-04-23 07:07 47.39305 2.72361 37268 ft 475 kts 162°
2026-04-23 07:07 47.33031 2.75418 37258 ft 475 kts 162°
2026-04-23 07:08 47.26748 2.78449 37250 ft 476 kts 162°
2026-04-23 07:08 47.20450 2.81469 37249 ft 476 kts 162°
2026-04-23 07:09 47.14159 2.84492 37243 ft 476 kts 162°
2026-04-23 07:09 47.07850 2.87518 37255 ft 477 kts 163°
2026-04-23 07:10 47.01535 2.90531 37277 ft 477 kts 162°
2026-04-23 07:10 46.96285 2.93036 37276 ft 477 kts 163°
2026-04-23 07:11 46.89964 2.96039 37260 ft 478 kts 163°
2026-04-23 07:12 46.80479 3.00526 37262 ft 478 kts 163°
2026-04-23 07:12 46.74147 3.03520 37256 ft 479 kts 163°
2026-04-23 07:13 46.67811 3.06515 37258 ft 479 kts 163°
2026-04-23 07:13 46.61474 3.09497 37265 ft 479 kts 163°
2026-04-23 07:14 46.55137 3.12470 37271 ft 479 kts 163°
2026-04-23 07:14 46.48837 3.15617 37254 ft 479 kts 161°
2026-04-23 07:15 46.42600 3.19058 37247 ft 480 kts 160°
2026-04-23 07:15 46.36362 3.22523 37270 ft 480 kts 160°
2026-04-23 07:16 46.30102 3.25893 37256 ft 480 kts 161°
2026-04-23 07:16 46.23829 3.29221 37249 ft 480 kts 161°
2026-04-23 07:17 46.17553 3.32553 37244 ft 481 kts 161°
2026-04-23 07:17 46.11278 3.35894 37230 ft 481 kts 161°
2026-04-23 07:18 46.05032 3.39216 37225 ft 483 kts 161°
2026-04-23 07:18 45.98723 3.42562 37224 ft 484 kts 161°
2026-04-23 07:19 45.92391 3.45908 37229 ft 485 kts 161°
2026-04-23 07:19 45.86118 3.49502 37219 ft 487 kts 153°
2026-04-23 07:20 45.80382 3.54710 37221 ft 489 kts 147°
2026-04-23 07:20 45.74696 3.60085 37226 ft 490 kts 147°
2026-04-23 07:21 45.68993 3.65439 37215 ft 491 kts 147°
2026-04-23 07:21 45.63261 3.70799 37219 ft 493 kts 148°
2026-04-23 07:22 45.57510 3.76169 37225 ft 495 kts 147°
2026-04-23 07:22 45.51745 3.81548 37231 ft 495 kts 148°
2026-04-23 07:23 45.45969 3.86917 37229 ft 496 kts 148°
2026-04-23 07:23 45.40185 3.92283 37261 ft 496 kts 147°
2026-04-23 07:24 45.34995 3.98699 37260 ft 494 kts 128°
2026-04-23 07:24 45.30907 4.06513 37255 ft 493 kts 123°
2026-04-23 07:25 45.26881 4.14405 37243 ft 494 kts 124°
2026-04-23 07:25 45.22831 4.22296 37244 ft 495 kts 124°
2026-04-23 07:26 45.18768 4.30190 37270 ft 495 kts 124°
2026-04-23 07:26 45.14733 4.38009 37276 ft 495 kts 124°
2026-04-23 07:27 45.10644 4.45839 37278 ft 494 kts 126°
2026-04-23 07:27 45.06246 4.53335 37258 ft 496 kts 130°
2026-04-23 07:28 45.01632 4.60598 37282 ft 497 kts 130°
2026-04-23 07:28 44.97031 4.67870 37291 ft 496 kts 129°
2026-04-23 07:29 44.92512 4.75206 37292 ft 495 kts 129°
2026-04-23 07:29 44.88023 4.82553 37274 ft 494 kts 129°
2026-04-23 07:30 44.83509 4.89878 37263 ft 495 kts 129°
2026-04-23 07:30 44.78969 4.97188 37291 ft 496 kts 129°
2026-04-23 07:31 44.74425 5.04483 37293 ft 495 kts 129°
2026-04-23 07:31 44.69884 5.11752 37288 ft 494 kts 129°
2026-04-23 07:32 44.65346 5.19007 37288 ft 494 kts 129°
2026-04-23 07:32 44.60804 5.26247 37282 ft 494 kts 129°
2026-04-23 07:33 44.56266 5.33474 37307 ft 493 kts 130°
2026-04-23 07:33 44.51731 5.40683 37301 ft 492 kts 130°
2026-04-23 07:34 44.47200 5.47857 37282 ft 491 kts 130°
2026-04-23 07:34 44.42654 5.55012 37282 ft 492 kts 130°
2026-04-23 07:35 44.38138 5.62189 37270 ft 491 kts 125°
2026-04-23 07:35 44.34284 5.70017 37275 ft 489 kts 121°
2026-04-23 07:36 44.30478 5.77891 37298 ft 489 kts 121°
2026-04-23 07:36 44.26657 5.85721 37284 ft 488 kts 121°
2026-04-23 07:37 44.22833 5.93541 37261 ft 488 kts 121°
2026-04-23 07:37 44.19004 6.01370 37256 ft 489 kts 122°
2026-04-23 07:38 44.15165 6.09199 37290 ft 490 kts 122°
2026-04-23 07:38 44.11341 6.16955 37293 ft 489 kts 122°
2026-04-23 07:39 44.07499 6.24745 37296 ft 488 kts 122°
2026-04-23 07:39 44.03647 6.32506 37286 ft 487 kts 122°
2026-04-23 07:40 43.99798 6.40259 37282 ft 487 kts 122°
2026-04-23 07:40 43.95954 6.48007 37307 ft 487 kts 122°
2026-04-23 07:41 43.92101 6.55741 37308 ft 487 kts 122°
2026-04-23 07:41 43.88243 6.63444 37303 ft 486 kts 122°
2026-04-23 07:42 43.84383 6.71123 37305 ft 486 kts 122°
2026-04-23 07:42 43.80528 6.78802 37282 ft 486 kts 122°
2026-04-23 07:43 43.76671 6.86482 37305 ft 486 kts 122°
2026-04-23 07:43 43.72797 6.94152 37295 ft 486 kts 122°
2026-04-23 07:44 43.68994 7.01880 37288 ft 486 kts 120°
2026-04-23 07:44 43.65375 7.09745 37285 ft 485 kts 119°
2026-04-23 07:45 43.61763 7.17617 37283 ft 485 kts 120°
2026-04-23 07:45 43.58096 7.25432 37262 ft 485 kts 120°
2026-04-23 07:46 43.54400 7.33227 37265 ft 486 kts 120°
2026-04-23 07:46 43.50726 7.40975 37268 ft 486 kts 120°
2026-04-23 07:47 43.47022 7.48777 37269 ft 487 kts 120°
2026-04-23 07:47 43.43314 7.56566 37274 ft 487 kts 121°
2026-04-23 07:48 43.39594 7.64352 37298 ft 487 kts 121°
2026-04-23 07:48 43.35873 7.72127 37283 ft 487 kts 121°
2026-04-23 07:49 43.32144 7.79894 37283 ft 487 kts 121°
2026-04-23 07:49 43.28411 7.87654 37279 ft 487 kts 121°
2026-04-23 07:50 43.24668 7.95410 37283 ft 487 kts 121°
2026-04-23 07:50 43.20920 8.03155 37295 ft 487 kts 121°
2026-04-23 07:51 43.17170 8.10897 37283 ft 487 kts 121°
2026-04-23 07:51 43.13772 8.17902 37249 ft 487 kts 121°
2026-04-23 07:52 43.10014 8.25626 37259 ft 488 kts 121°
2026-04-23 07:52 43.06234 8.33338 37262 ft 488 kts 122°
2026-04-23 07:53 43.02447 8.41052 37281 ft 489 kts 121°
2026-04-23 07:53 42.98662 8.48765 37275 ft 488 kts 121°
2026-04-23 07:54 42.94878 8.56466 37275 ft 488 kts 121°
2026-04-23 07:54 42.91085 8.64157 37260 ft 488 kts 121°
2026-04-23 07:55 42.87600 8.72075 37275 ft 487 kts 115°
2026-04-23 07:55 42.84383 8.80194 37258 ft 487 kts 115°
2026-04-23 07:56 42.81157 8.88313 37247 ft 487 kts 115°
2026-04-23 07:56 42.77918 8.96426 37253 ft 487 kts 115°
2026-04-23 07:57 42.75223 9.03154 37257 ft 488 kts 116°
2026-04-23 07:57 42.71976 9.11254 37285 ft 488 kts 115°
2026-04-23 07:58 42.68731 9.19346 37280 ft 487 kts 115°
2026-04-23 07:58 42.65478 9.27427 37287 ft 487 kts 115°
2026-04-23 07:59 42.62215 9.35495 37262 ft 487 kts 116°
2026-04-23 07:59 42.58943 9.43563 37267 ft 488 kts 116°
2026-04-23 08:00 42.56186 9.51908 37288 ft 483 kts 105°
2026-04-23 08:00 42.53932 9.60495 37282 ft 483 kts 105°
2026-04-23 08:01 42.51659 9.69078 37287 ft 484 kts 105°
2026-04-23 08:01 42.49661 9.77735 37288 ft 478 kts 96°
2026-04-23 08:02 42.47959 9.86456 37307 ft 484 kts 109°
2026-04-23 08:02 42.44603 9.94393 37302 ft 487 kts 121°
2026-04-23 08:03 42.40873 10.02048 37286 ft 487 kts 121°
2026-04-23 08:03 42.37153 10.09700 37282 ft 487 kts 121°
2026-04-23 08:04 42.33433 10.17352 37276 ft 487 kts 121°
2026-04-23 08:04 42.29711 10.24985 37291 ft 486 kts 121°
2026-04-23 08:05 42.25984 10.32597 37282 ft 485 kts 121°
2026-04-23 08:05 42.22256 10.40180 37272 ft 485 kts 121°
2026-04-23 08:06 42.18527 10.47757 37264 ft 484 kts 121°
2026-04-23 08:06 42.14798 10.55317 37261 ft 484 kts 121°
2026-04-23 08:07 42.11065 10.62867 37264 ft 484 kts 121°
2026-04-23 08:07 42.07321 10.70412 37241 ft 485 kts 121°
2026-04-23 08:08 42.03572 10.77957 37234 ft 485 kts 121°
2026-04-23 08:08 41.99809 10.85502 37230 ft 486 kts 121°
2026-04-23 08:09 41.96036 10.93038 37225 ft 486 kts 121°
2026-04-23 08:09 41.92257 11.00569 37228 ft 486 kts 121°
2026-04-23 08:10 41.88476 11.08099 37226 ft 486 kts 121°
2026-04-23 08:10 41.82814 11.19328 37211 ft 487 kts 121°
2026-04-23 08:11 41.79014 11.26860 37208 ft 488 kts 121°
2026-04-23 08:11 41.75210 11.34388 37228 ft 488 kts 122°
2026-04-23 08:12 41.71393 11.41904 37229 ft 488 kts 122°
2026-04-23 08:12 41.67574 11.49399 37223 ft 487 kts 122°
2026-04-23 08:13 41.63757 11.56887 37223 ft 487 kts 122°
2026-04-23 08:13 41.59935 11.64360 37197 ft 487 kts 122°
2026-04-23 08:14 41.56100 11.71829 37225 ft 487 kts 122°
2026-04-23 08:14 41.52265 11.79287 37211 ft 487 kts 122°
2026-04-23 08:15 41.48432 11.86735 37207 ft 487 kts 122°
2026-04-23 08:15 41.44590 11.94173 37204 ft 487 kts 122°
2026-04-23 08:16 41.40744 12.01596 37203 ft 487 kts 122°
2026-04-23 08:16 41.36883 12.09005 37209 ft 487 kts 123°
2026-04-23 08:17 41.33029 12.16406 37191 ft 487 kts 123°
2026-04-23 08:17 41.29174 12.23812 37177 ft 487 kts 123°
2026-04-23 08:18 41.25305 12.31220 37181 ft 488 kts 123°
2026-04-23 08:18 41.21426 12.38620 37178 ft 488 kts 123°
2026-04-23 08:19 41.17539 12.46021 37204 ft 488 kts 123°
2026-04-23 08:19 41.13647 12.53403 37202 ft 488 kts 123°
2026-04-23 08:20 41.09757 12.60772 37202 ft 488 kts 123°
2026-04-23 08:20 41.05858 12.68135 37183 ft 488 kts 123°
2026-04-23 08:21 41.01951 12.75505 37176 ft 489 kts 123°
2026-04-23 08:21 40.98034 12.82881 37202 ft 490 kts 123°
2026-04-23 08:22 40.94106 12.90249 37203 ft 490 kts 124°
2026-04-23 08:22 40.90180 12.97614 37207 ft 490 kts 123°
2026-04-23 08:23 40.86444 13.05128 37203 ft 489 kts 120°
2026-04-23 08:23 40.82824 13.12727 37202 ft 489 kts 120°
2026-04-23 08:24 40.79168 13.20300 37189 ft 489 kts 121°
2026-04-23 08:24 40.75450 13.27829 37177 ft 490 kts 122°
2026-04-23 08:25 40.71708 13.35353 37173 ft 491 kts 122°
2026-04-23 08:25 40.67965 13.42892 37178 ft 492 kts 122°
2026-04-23 08:26 40.64234 13.50443 37221 ft 492 kts 122°
2026-04-23 08:26 40.60493 13.57977 37214 ft 492 kts 122°
2026-04-23 08:27 40.56741 13.65495 37207 ft 491 kts 122°
2026-04-23 08:27 40.52991 13.72998 37200 ft 491 kts 122°
2026-04-23 08:28 40.49234 13.80497 37159 ft 492 kts 122°
2026-04-23 08:28 40.45465 13.88008 37190 ft 493 kts 122°
2026-04-23 08:29 40.41683 13.95520 37181 ft 493 kts 122°
2026-04-23 08:29 40.37897 14.03019 37180 ft 493 kts 122°
2026-04-23 08:30 40.34104 14.10512 37176 ft 493 kts 122°
2026-04-23 08:30 40.30313 14.18002 37175 ft 493 kts 122°
2026-04-23 08:31 40.26512 14.25476 37190 ft 493 kts 123°
2026-04-23 08:31 40.22705 14.32937 37151 ft 493 kts 123°
2026-04-23 08:32 40.18923 14.40352 37144 ft 494 kts 123°
2026-04-23 08:32 40.15102 14.47820 37146 ft 494 kts 123°
2026-04-23 08:33 40.11268 14.55282 37145 ft 495 kts 123°
2026-04-23 08:33 40.07424 14.62739 37149 ft 495 kts 123°
2026-04-23 08:34 40.03581 14.70194 37147 ft 495 kts 123°
2026-04-23 08:34 39.99733 14.77649 37151 ft 495 kts 123°
2026-04-23 08:35 39.95885 14.85090 37151 ft 495 kts 123°
2026-04-23 08:35 39.92025 14.92523 37143 ft 495 kts 124°
2026-04-23 08:36 39.88158 14.99959 37140 ft 496 kts 124°
2026-04-23 08:36 39.84284 15.07390 37140 ft 496 kts 124°
2026-04-23 08:37 39.80397 15.14819 37135 ft 497 kts 124°
2026-04-23 08:37 39.76533 15.22191 37137 ft 497 kts 124°
2026-04-23 08:38 39.72638 15.29603 37168 ft 497 kts 124°
2026-04-23 08:38 39.69431 15.37507 37158 ft 495 kts 112°
2026-04-23 08:39 39.66604 15.45640 37149 ft 494 kts 113°
2026-04-23 08:39 39.63753 15.53756 37144 ft 494 kts 113°
2026-04-23 08:40 39.60890 15.61860 37142 ft 494 kts 113°
2026-04-23 08:40 39.58040 15.69958 37145 ft 494 kts 113°
2026-04-23 08:41 39.55180 15.78056 37136 ft 494 kts 113°
2026-04-23 08:41 39.52323 15.86141 37133 ft 494 kts 113°
2026-04-23 08:42 39.49938 15.92856 37133 ft 494 kts 114°
2026-04-23 08:42 39.47060 16.00924 37152 ft 494 kts 114°
2026-04-23 08:43 39.44179 16.08987 37152 ft 493 kts 114°
2026-04-23 08:43 39.41299 16.17036 37141 ft 493 kts 114°
2026-04-23 08:44 39.38412 16.25069 37143 ft 492 kts 114°
2026-04-23 08:44 39.35521 16.33090 37145 ft 492 kts 114°
2026-04-23 08:45 39.32627 16.41108 37163 ft 492 kts 114°
2026-04-23 08:45 39.29732 16.49112 37157 ft 492 kts 114°
2026-04-23 08:46 39.26827 16.57120 37109 ft 493 kts 114°
2026-04-23 08:46 39.23906 16.65131 37108 ft 494 kts 115°
2026-04-23 08:47 39.20972 16.73148 37137 ft 494 kts 115°
2026-04-23 08:47 39.18049 16.81171 37136 ft 494 kts 115°
2026-04-23 08:48 39.15148 16.89137 37126 ft 494 kts 115°
2026-04-23 08:48 39.12218 16.97144 37125 ft 494 kts 115°
2026-04-23 08:49 39.09278 17.05139 37111 ft 494 kts 115°
2026-04-23 08:49 39.06333 17.13133 37106 ft 494 kts 115°
2026-04-23 08:50 39.03390 17.21124 37113 ft 494 kts 115°
2026-04-23 08:50 39.00443 17.29116 37118 ft 494 kts 115°
2026-04-23 08:51 38.97479 17.37093 37105 ft 495 kts 115°
2026-04-23 08:51 38.94510 17.45061 37135 ft 494 kts 116°
2026-04-23 08:52 38.91544 17.53024 37093 ft 494 kts 116°
2026-04-23 08:52 38.88574 17.60980 37074 ft 494 kts 116°
2026-04-23 08:53 38.85584 17.68929 37089 ft 495 kts 116°
2026-04-23 08:53 38.82963 17.77076 37092 ft 494 kts 107°
2026-04-23 08:54 38.80900 17.85486 37086 ft 495 kts 107°
2026-04-23 08:54 38.78830 17.93903 37077 ft 495 kts 107°
2026-04-23 08:55 38.76763 18.02263 37065 ft 495 kts 107°
2026-04-23 08:55 38.74666 18.10672 37076 ft 496 kts 107°
2026-04-23 08:56 38.72566 18.19080 37069 ft 496 kts 107°
2026-04-23 08:56 38.70460 18.27482 37074 ft 496 kts 107°
2026-04-23 08:57 38.68333 18.35875 37078 ft 496 kts 107°
2026-04-23 08:57 38.66193 18.44261 37069 ft 496 kts 108°
2026-04-23 08:58 38.64048 18.52643 37069 ft 496 kts 108°
2026-04-23 08:58 38.62973 18.56841 36862 ft 497 kts 108°
2026-04-23 08:58 38.61901 18.61034 36594 ft 496 kts 108°
2026-04-23 08:59 38.60826 18.65225 36108 ft 496 kts 108°
2026-04-23 08:59 38.59751 18.69416 35502 ft 496 kts 108°
2026-04-23 08:59 38.58676 18.73595 34919 ft 495 kts 108°
2026-04-23 08:59 38.57598 18.77774 34318 ft 495 kts 108°
2026-04-23 09:00 38.56516 18.81952 33674 ft 496 kts 109°
2026-04-23 09:00 38.55432 18.86124 33084 ft 493 kts 109°
2026-04-23 09:00 38.54355 18.90277 32490 ft 492 kts 109°
2026-04-23 09:00 38.53283 18.94411 31906 ft 490 kts 109°
2026-04-23 09:01 38.52218 18.98523 31420 ft 486 kts 109°
2026-04-23 09:01 38.51157 19.02608 30925 ft 482 kts 109°
2026-04-23 09:01 38.50102 19.06654 30447 ft 479 kts 109°
2026-04-23 09:01 38.49048 19.10672 29954 ft 476 kts 110°
2026-04-23 09:02 38.47999 19.14655 29475 ft 470 kts 110°
2026-04-23 09:02 38.46962 19.18584 29022 ft 465 kts 110°
2026-04-23 09:02 38.45936 19.22468 28590 ft 459 kts 110°
2026-04-23 09:02 38.44943 19.26231 28156 ft 454 kts 110°
2026-04-23 09:03 38.43936 19.30049 27729 ft 449 kts 110°
2026-04-23 09:03 38.42943 19.33810 27294 ft 445 kts 110°
2026-04-23 09:03 38.41956 19.37530 26864 ft 441 kts 110°
2026-04-23 09:03 38.40974 19.41219 26418 ft 438 kts 110°
2026-04-23 09:04 38.39998 19.44883 25978 ft 435 kts 110°
2026-04-23 09:04 38.39026 19.48527 25522 ft 433 kts 110°
2026-04-23 09:04 38.38057 19.52152 25072 ft 431 kts 110°
2026-04-23 09:04 38.37093 19.55762 24586 ft 430 kts 110°
2026-04-23 09:05 38.36130 19.59363 24115 ft 429 kts 110°
2026-04-23 09:05 38.35170 19.62956 23643 ft 428 kts 110°
2026-04-23 09:05 38.34210 19.66539 23097 ft 426 kts 110°
2026-04-23 09:05 38.33256 19.70087 22657 ft 422 kts 110°
2026-04-23 09:06 38.32309 19.73608 22198 ft 419 kts 110°
2026-04-23 09:06 38.31367 19.77109 21734 ft 417 kts 110°
2026-04-23 09:06 38.30425 19.80591 21277 ft 415 kts 110°
2026-04-23 09:06 38.29486 19.84055 20833 ft 413 kts 110°
2026-04-23 09:07 38.28549 19.87497 20365 ft 411 kts 110°
2026-04-23 09:07 38.27614 19.90931 19923 ft 410 kts 110°
2026-04-23 09:07 38.26458 19.94206 19473 ft 403 kts 128°
2026-04-23 09:07 38.24580 19.96748 19003 ft 390 kts 150°
2026-04-23 09:08 38.22209 19.98247 18413 ft 371 kts 173°
2026-04-23 09:08 38.19767 19.98606 18003 ft 339 kts 192°
2026-04-23 09:08 38.17513 19.98227 17627 ft 321 kts 197°
2026-04-23 09:08 38.15288 19.97912 17251 ft 322 kts 193°
2026-04-23 09:09 38.13046 19.97738 16875 ft 323 kts 190°
2026-04-23 09:09 38.10795 19.97695 16512 ft 324 kts 187°
2026-04-23 09:09 38.08566 19.97794 16134 ft 326 kts 184°
2026-04-23 09:09 38.06303 19.98043 15747 ft 328 kts 180°
2026-04-23 09:10 38.04049 19.98552 15404 ft 333 kts 168°
2026-04-23 09:10 38.00230 20.02002 14583 ft 351 kts 127°
2026-04-23 09:10 37.99120 20.04757 14135 ft 354 kts 106°
2026-04-23 09:11 37.98737 20.07830 13671 ft 353 kts 90°
2026-04-23 09:11 37.98873 20.10917 13223 ft 349 kts 77°
2026-04-23 09:11 37.99493 20.13856 12847 ft 342 kts 65°
2026-04-23 09:11 38.00387 20.16633 12462 ft 339 kts 64°
2026-04-23 09:12 38.01276 20.19391 12079 ft 337 kts 64°
2026-04-23 09:12 38.02159 20.22132 11683 ft 335 kts 64°
2026-04-23 09:12 38.02896 20.24929 11317 ft 336 kts 79°
2026-04-23 09:12 38.02772 20.27869 10829 ft 340 kts 107°
2026-04-23 09:13 38.01618 20.30423 10565 ft 332 kts 133°
2026-04-23 09:13 37.99887 20.32324 10024 ft 327 kts 142°
2026-04-23 09:13 37.98195 20.34243 9367 ft 323 kts 136°
2026-04-23 09:13 37.96718 20.36313 8934 ft 311 kts 128°
2026-04-23 09:14 37.95504 20.38519 8503 ft 300 kts 120°
2026-04-23 09:14 37.94553 20.40819 8061 ft 290 kts 112°
2026-04-23 09:14 37.93841 20.43147 7671 ft 278 kts 106°
2026-04-23 09:14 37.93340 20.45466 7267 ft 268 kts 99°
2026-04-23 09:15 37.93036 20.47753 6870 ft 259 kts 93°
2026-04-23 09:15 37.92916 20.49985 6485 ft 250 kts 88°
2026-04-23 09:15 37.92966 20.52157 6087 ft 244 kts 83°
2026-04-23 09:15 37.93166 20.54260 5701 ft 238 kts 77°
2026-04-23 09:16 37.93500 20.56280 5327 ft 232 kts 72°
2026-04-23 09:16 37.93960 20.58207 4959 ft 225 kts 67°
2026-04-23 09:16 37.94533 20.60030 4595 ft 220 kts 62°
2026-04-23 09:16 37.95303 20.61652 4230 ft 210 kts 39°
2026-04-23 09:17 37.96551 20.62465 3898 ft 200 kts
2026-04-23 09:17 37.97868 20.62270 3576 ft 188 kts 335°
2026-04-23 09:17 37.98945 20.61390 3252 ft 181 kts 325°
2026-04-23 09:17 37.99964 20.60488 2942 ft 175 kts 325°
2026-04-23 09:18 38.00939 20.59630 2651 ft 166 kts 325°
2026-04-23 09:18 38.01863 20.58821 2384 ft 154 kts 326°
2026-04-23 09:18 38.02712 20.58076 2110 ft 143 kts 326°
2026-04-23 09:18 38.03505 20.57378 1881 ft 136 kts 325°
2026-04-23 09:19 38.04273 20.56699 1711 ft 133 kts 326°
2026-04-23 09:19 38.05023 20.56034 1534 ft 131 kts 326°
2026-04-23 09:19 38.05772 20.55370 1364 ft 131 kts 326°
2026-04-23 09:19 38.06522 20.54703 1184 ft 131 kts 326°
2026-04-23 09:20 38.07272 20.54031 1021 ft 132 kts 325°
2026-04-23 09:20 38.08024 20.53377 851 ft 130 kts 327°
2026-04-23 09:20 38.08784 20.52736 684 ft 132 kts 327°
2026-04-23 09:20 38.09554 20.52111 527 ft 132 kts 327°
2026-04-23 09:21 38.10318 20.51465 347 ft 132 kts 326°
2026-04-23 09:21 38.11070 20.50830 163 ft 131 kts 327°
2026-04-23 09:21 38.11812 20.50206 64 ft 115 kts 326°
2026-04-23 09:21 38.12347 20.49756 52 ft 67 kts 326°
2026-04-23 09:22 38.12649 20.49498 49 ft 37 kts 326°
2026-04-23 09:22 38.12814 20.49357 42 ft 17 kts 326°
2026-04-23 09:22 38.12871 20.49276 40 ft 8 kts 343°
2026-04-23 09:22 38.12878 20.49307 40 ft 6 kts 120°
2026-04-23 09:23 38.12823 20.49357 42 ft 13 kts 146°
2026-04-23 09:23 38.12734 20.49431 44 ft 18 kts 146°
2026-04-23 09:23 38.12619 20.49529 50 ft 19 kts 146°
2026-04-23 09:23 38.12513 20.49617 54 ft 20 kts 147°
2026-04-23 09:24 38.12379 20.49729 58 ft 26 kts 146°
2026-04-23 09:24 38.12219 20.49864 56 ft 28 kts 146°
2026-04-23 09:24 38.12058 20.49995 66 ft 27 kts 153°
2026-04-23 09:24 38.11921 20.50116 66 ft 15 kts 146°
2026-04-23 09:25 38.11891 20.50194 68 ft 9 kts 87°
2026-04-23 09:25 38.11905 20.50265 66 ft 8 kts 64°
2026-04-23 09:25 38.11932 20.50320 65 ft 7 kts 57°
2026-04-23 09:25 38.11951 20.50355 65 ft 2 kts 56°
2026-04-23 09:26 38.11954 20.50361 62 ft 0 kts 56°